Flag for U.S.A. Weather past 2 weeks in Glennallen, Alaska, U.S.A.

Now
69 °F

Sunny.


Feels Like: 69 °F
Forecast: 53 / 76 °F
Wind: 6 mph from West

Location: Gulkana Airport

Current Time: May 28, 2015 at 10:55:26 PM

Latest Report: May 28, 2015 at 9:53 PM


Visibility: 10 mi

Pressure: 30.16 "Hg

Humidity: 26%

Dew point: 33 °F

Location of GlennallenLocation

Historic Weather in Glennallen — Graph

°F

Glennallen temperature yesterday

Maximum temperature yesterday: 71 °F (at 5:53 PM)
Minimum temperature yesterday: 48 °F (at 4:53 AM)
Average temperature yesterday: 60 °F

Past Weeks' High & Low Weather Summary

 TemperatureHumidityPressure
High79 °F (May 22, 3:53 PM)93% (May 25, 1:53 AM)30.26 "Hg (May 25, 1:53 AM)
Low34 °F (May 19, 4:53 AM)9% (May 17, 5:53 PM)29.78 "Hg (May 15, 3:53 PM)
Average56 °F44%30.07 "Hg
* Reported May 13 9:53 PM — May 28 9:53 PM, Glennallen, Weather by CustomWeather, © 2015

Note: Actual official high and low records may vary slightly from our data, if they occured in-between our weather recording intervals... More about our weather records

Advertising

Glennallen weather history for previous 24 hours

 ConditionsComfort  
Time TempWeatherWind HumidityBarometerVisibility
9:53 PM
Thu, May 28
69 °FSunny.6 mph26%30.16 "Hg10 mi
8:53 PM73 °FSunny.No wind33%30.15 "Hg10 mi
7:53 PM76 °FSunny.3 mph29%30.15 "Hg10 mi
6:53 PM76 °FSunny.6 mph30%30.15 "Hg10 mi
5:53 PM75 °FSunny.No wind32%30.16 "Hg10 mi
4:53 PM75 °FOvercast.9 mph34%30.17 "Hg10 mi
3:53 PM72 °FPassing clouds.3 mph38%30.19 "Hg10 mi
2:53 PM72 °FSunny.5 mph37%30.20 "Hg10 mi
1:53 PM72 °FSunny.5 mph37%30.21 "Hg10 mi
12:53 PM69 °FSunny.No wind39%30.22 "Hg10 mi
11:53 AM66 °FPartly sunny.No wind43%30.23 "Hg10 mi
10:53 AM61 °FSunny.5 mph50%30.24 "Hg10 mi
9:53 AM59 °FPassing clouds.7 mph51%30.25 "Hg10 mi
8:53 AM56 °FBroken clouds.9 mph60%30.26 "Hg10 mi
7:53 AM52 °FOvercast.12 mph69%30.26 "Hg10 mi
6:53 AM50 °FMostly cloudy.8 mph74%30.26 "Hg10 mi
5:53 AM50 °FOvercast.9 mph71%30.24 "Hg10 mi
4:53 AM50 °FOvercast.9 mph74%30.24 "Hg10 mi
3:53 AM51 °FPassing clouds.7 mph71%30.23 "Hg10 mi
2:53 AM52 °FPassing clouds.9 mph69%30.23 "Hg10 mi
1:53 AM54 °FOvercast.9 mph67%30.22 "Hg10 mi
12:53 AM55 °FPassing clouds.6 mph64%30.21 "Hg10 mi
11:53 PM
Wed, May 27
58 °FSunny.10 mph60%30.19 "Hg10 mi
10:53 PM60 °FScattered clouds.8 mph56%30.16 "Hg10 mi
Weather by CustomWeather, © 2015

See weather overviewHow to use our weather pages